User: anonymous   Login
Location: Unspecified
(0.0000°N, 0.0000°E)
Time: 17:24:45
(UTC+00:00)
Language:

Megsat 1 - Orbit

View from above orbital plane
View from above orbital plane
View from above satellite
View from above satellite

Ground track
Ground track

The orbit data is extracted from the following two-line orbital elements,

1 26545U 00057A   18145.27037237 -.00000002 +00000-0 +16916-4 0  9994
2 26545 064.5543 105.9052 0002593 069.5858 290.5527 14.84881783955149
Epoch (UTC): 25 May 2018 06:29:20
Eccentricity: 0.0002593
inclination: 64.5543°
perigee height: 612 km
apogee height: 616 km
right ascension of ascending node: 105.9052°
argument of perigee: 69.5858°
revolutions per day: 14.84881783
mean anomaly at epoch: 290.5527°
orbit number at epoch: 95514

The dashed part of the orbit path shows where the satellite is in the earth's shadow,  

DLR